Location: B?i?a-Plai
(46.4667°N, 22.5833°E)
Time: 23:15:16
(UTC+00:00)

Daily predictions for brighter satellites

Satellite Brightness Start Highest point End
(mag) Time Altitude Azimuth Time Altitude Azimuth Time Altitude Azimuth
Cosmos 2082 Rocket 2.3 16:51:34 10° NNW 16:57:19 69° ENE 17:02:59 10° SE
Cosmos 1356 Rocket 3.5 16:54:34 10° S 16:58:44 57° E 17:02:57 10° NNE
Cosmos 1378 Rocket 4.3 16:57:24 10° N 17:01:25 33° ENE 17:05:25 10° SE
H-2A R/B 2.8 16:57:04 10° S 17:01:57 56° W 17:07:01 10° NNW
COSMOS 2455 3.5 16:58:22 10° NNW 17:04:01 39° NE 17:09:37 10° ESE
H-2A R/B 2.9 17:03:11 10° S 17:07:35 76° WSW 17:12:07 10° NNW
Cosmos 1400 Rocket 4.2 17:05:37 10° SE 17:08:39 20° E 17:11:40 10° NE
SJ-6B 4.5 17:06:09 10° ESE 17:09:02 19° ENE 17:11:54 10° NNE
YAOGAN 1 2.5 17:05:59 10° SSE 17:10:18 77° ENE 17:14:39 10° N
OBJECT-B 2.4 17:09:46 10° ESE 17:11:57 17° ENE 17:14:08 10° NNE
USA 305 4.1 17:09:16 10° W 17:13:13 38° NNW 17:17:11 10° NE
Meteor 1-21 4.2 17:11:51 10° N 17:17:32 64° ENE 17:23:06 10° SSE
Cosmos 1674 Rocket 3.6 17:14:00 10° N 17:18:17 54° ENE 17:22:31 10° SSE
ARGOS 3.6 17:13:36 10° S 17:18:55 66° WSW 17:24:16 10° NNW
Cosmos 2278 Rocket 2.8 17:13:24 10° SW 17:19:01 62° WNW 17:24:41 10° NNE
USA 276 2.4 17:16:10 10° SW 17:19:10 47° SSE 17:21:52 12° ENE
COSMO-SKYMED 1 4.0 17:15:20 10° N 17:19:28 44° WNW 17:23:35 10° SW
SeaSat 1 2.9 17:14:51 10° ESE 17:19:29 42° NE 17:24:08 10° NNW
ISS -3.8 17:20:12 10° SW 17:23:34 75° SSE 17:26:51 11° ENE
Cosmos 2221 Rocket 3.8 17:20:02 10° NNW 17:24:28 77° W 17:28:52 10° S
Cosmos 2369 Rocket 3.5 17:21:56 10° SE 17:25:34 18° E 17:29:11 10° ENE
USA 307 4.2 17:21:58 10° W 17:25:55 36° NNW 17:29:53 10° NE
Cosmos 2297 4.1 17:21:27 10° S 17:26:43 41° ESE 17:32:03 10° NE
Ariane Rocket 4.5 17:24:34 13° E 17:27:19 19° ENE 17:30:47 10° NNE
Cosmos 1943 Rocket 2.6 17:23:42 10° S 17:28:46 38° ESE 17:33:54 10° NE
BREEZE-M DEB (TANK) 4.0 17:25:28 10° WNW 17:29:46 90° N 17:44:31 14° ESE
USA 215 3.4 17:28:11 10° SE 17:34:46 81° SW 17:41:23 10° NW
CZ-2C R/B 3.6 17:32:04 10° N 17:37:24 54° WNW 17:42:47 10° SW
CSL-04 Debris 4.1 17:33:49 10° SSE 17:39:12 76° ENE 17:44:37 10° NNW
Cosmos 1461 2.9 17:36:01 10° NNW 17:39:59 55° NE 17:42:32 20° ESE
USA 306 4.3 17:37:20 10° WNW 17:41:10 32° N 17:45:01 10° NE
Cosmos 1733 Rocket 3.7 17:38:35 10° SSW 17:42:50 59° W 17:47:08 10° N
Okean-O 2.7 17:39:09 10° SSE 17:43:34 81° WSW 17:48:02 10° NNW
Cosmos 2074 Rocket 3.9 17:38:02 10° S 17:44:14 74° E 17:50:30 10° NNE
Cosmos 968 Rocket 4.1 17:39:37 10° SW 17:44:48 62° WNW 17:50:04 10° NNE
USA 308 4.3 17:41:26 10° WNW 17:45:17 33° N 17:49:09 10° NE
ATLAS CENTAUR R/B 2.1 17:41:59 10° NNW 17:46:28 47° NE 17:49:15 22° ESE
Cosmos 1782 Rocket 4.3 17:43:36 10° SSE 17:47:32 32° E 17:51:28 10° NNE
H-2A R/B 2.7 17:44:20 10° N 17:48:31 57° WNW 17:52:35 10° SSW
Cosmos 1707 2.7 17:45:03 10° N 17:48:59 89° W 17:52:54 10° S
Cosmos 1503 Rocket 4.0 17:45:21 10° S 17:50:28 61° ESE 17:55:36 10° NNE
Resurs 01 Rocket 2.9 17:59:27 22° ENE 17:59:56 22° ENE 18:03:20 10° NNE
CZ-4B R/B 1.7 17:57:36 10° N 18:00:36 59° WNW 18:03:38 10° SSW
Cosmos 1346 Rocket 3.3 17:57:39 10° N 18:01:28 40° ENE 18:02:33 33° ESE
Cosmos 1674 2.6 18:00:06 10° N 18:03:46 59° E 18:05:20 31° SSE
USA 186 1.3 18:03:24 38° SSE 18:04:20 87° ENE 18:07:18 10° NNW
Cosmos 1354 Rocket 3.9 17:59:20 10° S 18:04:32 68° ESE 18:09:45 10° NNE
KORONAS-FOTON 3.6 18:02:16 10° N 18:06:02 66° E 18:07:46 29° SSE
Cosmos 1777 Rocket 4.4 18:01:28 10° SSE 18:06:15 37° ESE 18:11:04 10° NE
Cosmos 1238 Rocket 3.9 18:05:09 10° S 18:11:41 88° W 18:17:36 10° N
CZ-4 R/B 4.0 18:10:29 10° SW 18:13:21 20° W 18:16:15 10° NW
Lacrosse 4 Rocket 4.3 18:13:15 10° W 18:15:48 16° NW 18:18:22 10° N
Cosmos 1975 Rocket 3.1 18:11:41 10° N 18:16:02 55° ENE 18:17:20 39° SE
Resurs 1-3 3.7 18:15:43 39° ESE 18:16:59 53° ENE 18:21:17 10° N
IRS-1A Rocket 4.5 18:15:09 28° SE 18:18:08 56° ENE 18:23:52 10° N
Cosmos 1025 Rocket 3.6 18:15:53 10° N 18:19:54 37° ENE 18:19:54 37° ENE
MOS 1 4.3 18:18:24 29° SE 18:21:16 61° ENE 18:26:52 10° N
Cosmos 1733 4.0 18:23:50 35° NE 18:23:50 35° NE 18:26:24 10° NNE
Helios 1A Rocket 2.8 18:26:05 51° SE 18:27:01 74° ENE 18:31:07 10° N
Lacrosse 5 rocket 1.6 18:22:38 10° NW 18:27:10 65° NE 18:28:02 52° E
Cosmos 962 Rocket 4.4 18:23:04 10° S 18:29:11 63° E 18:35:16 10° NNE
EO 1 Delta rocket 3.9 18:29:27 44° SE 18:30:45 63° ENE 18:35:54 10° N
Meteor 1-24 Rocket 4.3 18:28:11 10° N 18:33:02 34° ENE 18:33:05 34° ENE
Cosmos 1315 Rocket 4.0 18:34:55 30° NE 18:34:55 30° NE 18:37:12 10° NNE
Cosmos 1626 2.0 18:33:47 10° N 18:37:30 85° W 18:37:33 84° SW
CSL-04 DEB 4.3 18:37:55 10° NNE 18:41:55 81° WNW 18:43:05 44° SSW
Cosmos 773 Rocket 4.2 18:37:45 10° NNW 18:42:59 70° WSW 18:45:10 35° S
SJ-6B 3.9 18:41:04 23° SSW 18:43:19 46° W 18:47:19 10° NNW
OBJECT-B 2.8 18:42:29 19° SW 18:43:51 26° W 18:46:36 10° NW
Cosmos 1400 Rocket 4.4 18:41:03 10° SW 18:44:52 36° WNW 18:48:39 10° N
Cosmos 2297 Rocket 4.4 18:43:29 10° NNE 18:45:13 11° NNE 18:46:30 11° NE
COSMOS 2455 3.7 18:44:20 10° NW 18:50:04 46° WSW 18:53:25 24° S
Meteor 1-15 Rocket 4.0 18:50:21 39° S 18:52:28 76° E 18:58:03 10° NNE
USA 305 4.3 18:50:10 10° WNW 18:53:54 29° N 18:54:32 28° NNE
Cosmos 1833 4.2 18:48:40 10° NNW 18:54:16 60° ENE 18:54:44 58° E
USA 276 4.1 18:52:18 10° W 18:54:06 29° WNW 18:54:06 29° WNW
SL-14 R/B 3.8 18:52:03 10° N 18:55:15 56° N 18:55:15 56° N
SeaSat 1 4.0 18:54:04 17° SSW 18:57:04 31° WSW 19:01:28 10° NW
SPOT 5 4.5 18:59:23 25° NE 18:59:23 25° NE 19:02:47 10° N
Sich 1 Rocket 4.1 19:01:26 52° NNE 19:01:26 52° NNE 19:04:55 10° N
ISS -2.0 18:57:27 10° W 18:59:51 32° NW 18:59:51 32° NW
SL-8 Rocket 3.9 18:59:55 43° S 19:02:08 78° E 19:08:27 10° N
Ariane Rocket 3.2 19:04:47 55° SSW 19:05:44 68° WSW 19:10:50 10° NNW
Meteor 2-10 4.4 19:07:24 53° NE 19:07:24 53° NE 19:11:56 10° NNE
SJ 16-02 2.7 19:08:43 31° NNE 19:08:43 31° NNE 19:11:07 10° NNE
USA 307 4.3 19:02:52 10° WNW 19:06:40 30° N 19:06:47 30° N
Cosmos 2227 Rocket 4.4 19:04:45 10° N 19:06:55 12° NE 19:07:41 12° NE
Cosmos 2369 Rocket 2.3 19:03:15 10° SSW 19:08:55 76° WNW 19:14:36 10° NNE
IGS 5A 4.0 19:09:51 56° NW 19:09:51 56° NW 19:13:22 10° NNW
Meteor 2-5 Rocket 3.5 19:03:51 10° N 19:09:25 83° E 19:09:37 81° ESE
Cosmos 1339 Rocket 4.5 19:03:51 10° N 19:10:06 80° W 19:11:49 50° S
Cosmos 1805 4.5 19:10:48 39° W 19:11:00 40° WNW 19:14:42 10° N
Cosmos 1538 Rocket 4.0 19:05:51 10° NNW 19:11:13 81° WSW 19:11:28 78° SSW
Cosmos 1943 Rocket 3.6 19:07:20 10° WSW 19:12:30 38° NW 19:17:44 10° NNE
Cosmos 1727 Rocket 4.1 19:06:51 10° N 19:12:54 57° ENE 19:12:54 57° ENE
Atlas Centaur 2 4.3 19:07:12 10° SW 19:11:53 22° S 19:11:53 22° S
SPOT 3 Rocket 3.5 19:13:44 74° NNE 19:13:44 74° NNE 19:18:32 10° NNW
USA 281 3.0 19:08:21 10° NNE 19:14:58 81° ESE 19:20:16 17° SSW
Meteor 2-20 4.5 19:09:14 10° NNW 19:15:21 76° W 19:16:44 55° SSW
Meteor 1-22 Rocket 4.4 19:17:59 59° NE 19:17:59 59° NE 19:22:42 10° NNE
USA 306 4.5 19:18:03 10° NW 19:21:14 30° N 19:21:14 30° N
ATLAS CENTAUR R/B 3.2 19:21:11 10° WNW 19:25:13 28° WSW 19:25:24 28° WSW
Terra 3.7 19:31:57 21° NNE 19:31:57 21° NNE 19:33:50 10° N
Cosmos 2263 4.3 19:30:34 64° WSW 19:31:14 71° WNW 19:36:51 10° NNE
Resurs 01 Rocket 2.9 19:37:01 38° WNW 19:37:01 38° WNW 19:40:24 10° NNW
Cosmos 2366 rocket 4.2 19:42:04 60° WSW 19:42:51 66° WNW 19:48:59 10° N
Cosmos 2218 Rocket 4.3 19:45:49 54° WSW 19:46:47 60° WNW 19:52:56 10° N
SPOT 1/Viking Rocket 4.4 19:51:55 47° WNW 19:51:55 47° WNW 19:55:59 10° NNW
Lacrosse 5 rocket 4.1 20:02:24 10° WNW 20:03:38 16° W 20:03:38 16° W
Cosmos 2297 Rocket 3.9 20:25:24 10° NNW 20:28:17 28° N 20:28:17 28° N
SJ 16-02 4.4 20:45:36 12° NW 20:45:59 12° NW 20:47:38 10° NNW
Cosmos 2227 Rocket 4.1 20:46:57 10° NNW 20:49:29 26° N 20:49:29 26° N
CENTAUR R/B 4.1 21:32:40 32° N 21:32:40 32° N 21:37:04 10° NE
ATLAS 3B R/B 4.5 22:34:40 23° NE 22:34:40 23° NE 22:37:02 10° NE
Cosmos 2344 4.5 22:21:43 10° NW 22:30:30 61° NE 22:31:01 61° ENE
SL-16 R/B 4.4 22:48:04 23° NE 22:48:04 23° NE 22:51:51 10° N
Resurs 1-4 Rocket 4.3 23:40:55 10° NNE 23:42:51 22° NE 23:42:51 22° NE
Cosmos 2360 Rocket 4.1 23:53:22 25° NE 23:53:22 25° NE 23:55:51 10° NE
